DELTA 1 DEB, 13536

Orbit data source: Space-Track

DELTA 1 DEB, 13536 is space debris in LEO originally from a launch on Thu, 29 Jul 1976 UTC launched from the Air Force Western Test Range (AFWTR). Debris objects in space refer to the collection of defunct objects orbiting the Earth. Examples of debris include non-operational satellites, rocket bodies, and fragments generated from explosions, collisions, or faulty payload assembly.

Loading next visibility...
Identifier
13536, 1976-077EJ
Orbit
LEO
Country
Flag of USUS
Related business
Manufacturer
Unknown
Mission
Spacecraft
Bus & Motor
Unknown
Mass
Unknown
Launch date (UTC)
1976-07-29 (50 years ago)
Launch vehicle
Unknown
Launch site
Air Force Western Test Range (AFWTR)
Object type
Payload
Rocket body
Debris
Shape & HBR
Unknown shape, 0.1 m
Radar Cross Section
Medium (>0.1 m² and <1 m²)

Expand to show TLE details & history
Last TLE update: 15 hours ago

TLE from 15 hours ago
0 DELTA 1 DEB
1 13536U 76077EJ  26255.57002527 -.00000142  00000-0 -13669-2 0  9999
2 13536 101.7911 156.7053 0420069 262.9395 220.4105 11.75920550 68322
Epoch: 2026-09-12T13:40Z
TLE epoch observation values (Epoch: 2026-09-12T13:40:50.183Z)
Latitude
57.72945°
Longitude
159.13171°
Altitude
2,067.077 km
Speed
6.763 km/s
True Right ascension
23h 43m 40s
True Declination
57° 35' 53"
Sunlit
Object was in daylight at epoch
Visualization orbit readout
Latitude
Unknown
Longitude
Unknown
Altitude
Unknown
Speed
Unknown
Apparent Right ascension
Unknown
Apparent Declination
Unknown
Sunlit
N/A
Visualization observer readout
Local Sidereal Time
20:49:00
Azimuth
Unknown
Elevation
Unknown
Doppler factor
Unknown
Orbital elements
Apogee altitude
2,131.186 km
Perigee altitude
1,445.106 km
Semi-major axis
8,166.283 km
Eccentricity
0.04201
Inclination
101.7911°
RAAN
156.7053°
Arg. of periapsis
262.9395°
True anomaly
217.41152°
Mean anomaly
220.4105°
Eccentric anomaly
218.89914°
Mean motion
2.94108 °/min
Orbital period
122.4 mins
BSTAR
-0.0013669
Loading maneuver chart data...
Computing Atmospheric mass density...
Loading historical data...
Loading historical data...
Loading historical data...
Loading historical data...
Loading historical data...
Loading historical data...
Loading historical data...

Documentation

Showing up to 5 results
|